Location: Buckenweiler
(49.0667°N, 10.2500°E)
Time: 02:11:06
(UTC+00:00)

Meteor 2-10 Rocket - Pass Details

Date: 18 January 2026
Orbit: 733 x 881 km, 81.2° (Epoch: 6 February)

Event Time Altitude Azimuth Distance (km) Brightness Sun altitude
Rises 04:10:30 0° 175° (S) 3,180 6.8 -28.2°
Reaches altitude 10° 04:12:50 10° 170° (S) 2,276 6.0 -27.8°
Maximum altitude 04:17:46 52° 95° (E) 960 4.3 -27.0°
Drops below altitude 10° 04:22:57 10° 20° (NNE) 2,378 6.2 -26.1°
Sets 04:25:26 0° 16° (NNE) 3,337 7.0 -25.7°
